www.pogodaiklimat.ru

Погода и климат >> Архив погоды >> Россия >> Краснодарский край >> Староминская


ПОГОДА в Староминская

  • Прогноз погоды в Староминская
  • Монитор погоды в Староминская

АРХИВ ПОГОДЫ в Староминская

Время (UTC), дата Ветер
(напр.,м/с)
 
Видим.   Явления Облачность Т
(С)
Тd
(С)
f
(%)
Тe
(С)
Тes
(С)
Комфортность P
(гПа)
Po
(гПа)
Тmin
(С)
Tmax
(С)
R
(мм)
R24
(мм)
S
(см)
15 15.09 С 2 10 км ясно +21.6 -2.6 20 +21 +21 комфорт 1020.4 1015.3 +23.9
18 15.09 З 2 10 км ясно +15.0 +3.9 47 +15 +15 1021.6 1016.4
21 15.09 З 1 10 км ясно +11.4 +8.2 81 +11 +11 1020.9 1015.6
00 16.09 штиль 0 4000 м дымка ясно +8.6 +6.9 89 +8 +8 1020.4 1015.1
03 16.09 штиль 0 4000 м дымка ясно +6.4 +4.9 90 +5 +5 1019.5 1014.2 +6.4
06 16.09 штиль 0 10 км ясно +20.3 +5.0 37 +21 +27 комфорт 1018.3 1013.2 +6.2
09 16.09 З 1 10 км ясно +24.0 -3.0 16 +22 +35 комфорт 1016.2 1011.2
12 16.09 З 3 10 км ясно +26.0 -2.6 15 +24 +29 комфорт 1013.9 1009.0
15 16.09 З 2 10 км ясно +22.0 +2.5 28 +22 +22 комфорт 1013.0 1008.0 +26.0
18 16.09 З 3 10 км ясно +16.6 +2.5 39 +16 +16 1013.1 1008.0
21 16.09 ЮЗ 2 10 км ясно +13.9 +5.5 57 +14 +14 1012.8 1007.6
00 17.09 ЮЗ 2 10 км ясно +14.5 +10.1 75 +14 +14 1012.0 1006.9
03 17.09 Ю 2 4000 м дымка ясно +14.6 +11.6 82 +14 +14 1011.5 1006.4 +13.6
06 17.09 ЮЗ 4 10 км ясно +20.1 +13.7 67 +22 +25 комфорт 1011.0 1006.0
09 17.09 ЮЗ 6-10
{10}
10 км 4/4 600 м
[Cu med, cong]
+23.8 +12.1 48 +26 +28 жарко 1010.3 1005.4
12 17.09 ЮЗ 5-10
{12}
10 км 3/3 600 м
[Cu med, cong]
+25.1 +11.9 44 +27 +29 жарко 1009.4 1004.5
15 17.09 ЮЗ 4
{11}
10 км 9/9 600 м
[Sc]
+21.8 +11.9 53 +24 +24 комфорт 1009.1 1004.1 +25.1
18 17.09 ЮЗ 5
{10}
10 км 10/10 600 м
[Sc]
+20.6 +12.2 59 +23 +23 комфорт 1010.0 1005.0
21 17.09 ЮЗ 5 10 км 10/10 600 м
[Sc]
+20.0 +14.6 71 +22 +22 комфорт 1009.4 1004.4
00 18.09 штиль 0
{11}
4000 м в посл. час ливневой дождь 10/10 600 м
[Cb cap]
+16.9 +15.1 89 +17 +17 1009.9 1004.9
03 18.09 штиль 0 4000 м дымка 6/6 600 м
[Cb calv]
+15.2 +14.0 93 +15 +15 1009.8 1004.7 +15.2 5
06 18.09 Ю 5 н/о н/о +19.7 +14.5 72 +21 +22 комфорт 1010.1 1005.1 +14.2
09 18.09 ЮЗ 6-10
{14}
10 км 8/8 600 м
[Cb calv]
+24.1 +16.0 61 +27 +28 жарко 1008.2 1003.2
12 18.09 ЮЗ 9-18
{20}
10 км 10/10 600 м
[Cb calv]
+24.8 +12.0 45 +26 +26 жарко 1006.5 1001.6
15 18.09 З 4
{19}
4000 м гроза, ливневой дождь 10/10 600 м
[Cb calv]
+19.1 +16.0 82 +21 +21 комфорт 1008.7 1003.7 +25.7 7
18 18.09 З 7-10
{12}
10 км {гроза, ливн. осадки} 10/10 600 м
[Cb calv]
+16.2 +9.4 64 +15 +15 1012.5 1007.4
21 18.09 СЗ 3
{10}
10 км 8/8 600 м
[Sc]
+13.6 +5.3 57 +13 +13 1015.2 1010.0
00 19.09 ЮЗ 3 10 км 3/3 600 м
[Sc]
+11.8 +2.1 51 +10 +10 1016.6 1011.4
03 19.09 З 3 н/о н/о +10.3 +4.0 65 +8 +8 1018.0 1012.8 +9.8 0.3
06 19.09 З 4 10 км ясно +14.6 +5.9 56 +14 +16 1019.8 1014.6
09 19.09 З 5 10 км 6/6 1000 м
[Cu hum]
+16.7 +5.8 49 +16 +18 1020.3 1015.2
12 19.09 СЗ 4 10 км 3/3 1000 м
[Cu hum]
+18.3 +4.1 39 +18 +21 1019.8 1014.6
15 19.09 СЗ 2 10 км 4/4 600 м
[Sc]
+16.2 +2.7 40 +16 +17 1020.0 1014.9 +18.4
18 19.09 ЮЗ 2 10 км ясно +11.0 +6.3 73 +10 +10 1020.7 1015.4
21 19.09 ЮЗ 2 4000 м дымка 3/3 600 м
[Sc]
+7.6 +5.9 89 +5 +5 1020.1 1014.8
00 20.09 ЮЗ 2 4000 м дымка 8/8 600 м
[Sc]
+10.9 +7.5 80 +10 +10 1019.6 1014.3
03 20.09 штиль 0 4000 м дымка 8/8 600 м
[Sc]
+11.1 +8.5 84 +10 +10 1018.8 1013.6 +7.5
06 20.09 ЮВ 1 10 км 10/10 600 м
[Sc]
+13.2 +9.0 76 +13 +13 1018.4 1013.2
09 20.09 Ю 2 10 км 10/10 600 м
[Sc]
+15.0 +8.6 66 +15 +15 1017.4 1012.3
12 20.09 ЮЗ 2 4000 м слаб. ливневой дождь 10/10 300 м
[Cb calv]
+12.0 +8.6 80 +11 +11 1016.9 1011.7
15 20.09 ЮВ 1 4000 м слаб. ливневой дождь 10/10 300 м
[Cb calv]
+10.3 +8.8 90 +10 +10 1017.1 1011.9 +15.1 8
18 20.09 Ю 2 4000 м дымка {ливн. осадки} 10/10 300 м
[Cb calv]
+9.4 +7.8 90 +8 +8 1016.5 1011.3
21 20.09 ЮЗ 2 4000 м дымка 10/10 600 м
[Sc]
+9.2 +7.4 88 +7 +7 1017.2 1011.9
00 21.09 Ю 1 4000 м дымка {ливн. осадки} 10/10 300 м
[Cb calv]
+8.7 +7.2 90 +8 +8 1016.6 1011.3
03 21.09 Ю 2 4000 м дымка 4/4 600 м
[Sc]
+7.5 +6.0 90 +5 +5 1016.2 1010.9 +7.5 2
06 21.09 З 4 10 км ясно +12.4 +8.8 79 +10 +13 1016.7 1011.5 +7.4
09 21.09 З 4 10 км 9/9 600 м
[Cb calv]
+13.5 +6.0 60 +12 +13 1017.2 1012.0
12 21.09 З 5 10 км 9/9 600 м
[Cb calv]
+15.4 +4.3 47 +14 +15 1017.2 1012.0
15 21.09 З 3
{10}
10 км 9/9 600 м
[Cb calv]
+12.0 +2.0 50 +11 +11 1018.1 1012.9 +15.5
18 21.09 штиль 0
{11}
10 км 8/8 600 м
[Sc]
+8.3 +4.2 75 +8 +8 1020.1 1014.9
21 21.09 ЮЗ 2 4000 м дымка ясно +6.5 +3.8 83 +4 +4 1020.7 1015.4
00 22.09 ЮЗ 3 10 км ясно +7.5 +3.0 73 +5 +5 1020.6 1015.3
03 22.09 ЮЗ 2 10 км ясно +7.9 +2.7 70 +6 +6 1020.5 1015.2 +5.4
06 22.09 ЮЗ 4 10 км 8/6 600 м
[Sc Ci fib]
+12.3 +5.6 64 +11 +11 1019.9 1014.7
09 22.09 ЮЗ 6-11
{13}
10 км 10/10 600 м
[Sc]
+15.0 +5.7 54 +13 +13 1018.2 1013.1
12 22.09 ЮЗ 6-11
{14}
10 км 9/9 600 м
[Cb calv]
+17.1 +9.2 60 +16 +16 1016.4 1011.2

 

Местоположение метеостанции Староминская (Краснодарский край, Россия): широта 46.53 долгота 39.02 высота над уровнем моря 43 м.

В архиве по умолчанию представлена погода в Староминская за последнюю неделю. Архивные данные за месяц целиком и за предыдущие месяцы, начиная с января 2011 года, Вы можете получить, выбрав интересующий диапазон дат из раскрывающегося списка и нажав кнопку "Ввод!".


*Определитесь, кто Вы:
робот инопланетянин человек

Внимание! Время в таблицах - всемирное. Для получения местного времени необходимо прибавить поправку, которая равна 3 ч.

Смотрите также архив погоды в соседних городах и на ближайших метеорологических станциях:

Погода в Кущевской (Краснодарский край, Россия) (46 км)
Погода в Маргаритово (Ростовская область, Россия) (46 км)
Погода в Каневской (Краснодарский край, Россия) (51 км)
Погода в Ейске (Краснодарский край, Россия) (65 км)
Погода в Таганроге (Ростовская область, Россия) (75 км)
Погода в Сосыке (Краснодарский край, Россия) (76 км)
Погода в Приморско-Ахтарске (Краснодарский край, Россия) (87 км)
Погода в Должанке (Краснодарский край, Россия) (100 км)
Погода в Тимашевске (Краснодарский край, Россия) (100 км)
Погода в Ростове-на-Дону (Ростовская область, Россия) (102 км)

Пояснения к столбцам:

Ветер - указаны скорость ветра в м/с - средняя за 10 мин, порывы в срок и между сроками (в фигурных скобках) и направление, откуда дует ветер: С - северный, СВ - северо-восточный, В - восточный, ЮВ - юго-восточный, Ю - южный, ЮЗ - юго-западный, З - западный, СЗ - северо-западный.
Видимость - горизонтальная дальность видимости в метрах или километрах. При видимости от 1 до 10 км при отсутствии осадков обычно наблюдается дымка, при ухудшении видимости до 1 км и менее - туман. В сухую погоду видимость может ухудшаться дымом, пылью или мглою.
Явления - указаны атмосферные явления, наблюдавшиеся в срок или в последний час перед сроком; фигурными скобками обозначены явления, наблюдавшиеся между сроками (за 1-3 часа до срока); квадратными скобками обозначены град или гололедные отложения с указанием их диаметра в мм.
Облачность - указаны через наклонную черту общая и нижняя облачность в баллах и высота нижней границы облаков в метрах; квадратными скобками обозначены формы облаков: Ci - перистые, Cs - перисто-слоистые, Cc - перисто-кучевые, Ac - высококучевые, As - высокослоистые, Sc - слоисто-кучевые, Ns - слоисто-дождевые, Cu - кучевые, Cb - кучево-дождевые. Подробнее классификацию облаков см. в Атласе облаков (PDF).
T - Температура воздуха - температура, измеренная на высоте 2 м над землей.
Td - Температура точки росы - температура, при понижении до которой содержащийся в воздухе водяной пар достигнет насыщения.
f - Относительная влажность воздуха - влажноcть воздуха, измеренная на высоте 2 м над землей.
Te - Эффективная температура - температура, которую ощущает одетый по сезону человек в тени. Характеристика душности погоды. При расчете учитывается влияние влажности воздуха и скорости ветра на теплоощущения человека.
Tes - Эффективная температура на солнце - температура, которую ощущает человек, с поправкой на солнечный нагрев. Характеристика знойности погоды. Зависит от высоты солнца над горизонтом, облачности и скорости ветра. Ночью, в пасмурную погоду, а также при ветре 12 м/с и более поправка равна нулю.
P - Атмосферное давление - приведенное к уровню моря атмосферное давление.
Po - Атмосферное давление - измеренное на уровне метеостанции атмосферное давление.
Tmin - Минимальная температура - минимум температуры воздуха на высоте 2 м над землей.
Tmax - Максимальная температура - максимум температуры воздуха на высоте 2 м над землей.
R - Количество осадков - Количество выпавших осадков за период времени, мм. При наведении курсора мыши на число - период времени, за который выпало указанное количество осадков.
R24 - Количество осадков - Количество выпавших осадков за 24 часа, мм.
S - Снежный покров - Высота снежного покрова, см. При наведении курсора мыши на число - состояние снежного покрова и степень покрытия местности в баллах.